Tracking 19176 objects as of 25-May-2018
HD Live streaming from Space Station
objects crossing your sky now

FOX-1B (RADFXSAT AO-91)

Track FOX-1B (RADFXSAT AO-91) now!
10-day predictions
FOX-1B (RADFXSAT AO-91) is classified as:


NORAD ID: 43017
Int'l Code: 2017-073E
Perigee: 460.5 km
Apogee: 824.7 km
Inclination: 97.7 °
Period: 97.4 minutes
Semi major axis: 7013 km
RCS: Unknown
Launch date: November 18, 2017
Source: United States (US)
Launch site: AIR FORCE WESTERN TEST RANGE (AFWTR)
Uplink (MHz): 435.250
Downlink (MHz): 145.960
Beacon (MHz): 145.960
Mode: FM CTCSS 67.0Hz/200bps DUV
Call sign:
Status: Active

aabbcc
Your satellite tracking list
Your tracking list is empty




NASA's NSSDC Master Catalog

Two Line Element Set (TLE):
1 43017U 17073E   18145.46693464  .00000737  00000-0  63572-4 0  9998
2 43017  97.7068  77.5435 0259597 345.9480  13.4600 14.78054981 27757
Source of the keplerian elements: AFSPC